This is the latest recevied weather packets stored in our database for station/object AK4NG. If no packets are shown the sender has not sent any weather packets the latest 10 day(s).
| Time | Temp. | Humidity | Pressure | Rain* | Wind** | Luminosity | Snow |
|---|---|---|---|---|---|---|---|
| 1778154414 | 21.11° C | 97% | 1011.8 hPa | 0 mm | - | 20 W/m² | - |
| 1778154111 | 21.11° C | 97% | 1011.5 hPa | 1.78 mm | - | 16 W/m² | - |
| 1778153809 | 21.11° C | 97% | 1011.3 hPa | 1.78 mm | - | 5 W/m² | - |
| 1778153505 | 21.67° C | 97% | 1011.6 hPa | 0 mm | - | 2 W/m² | - |
| 1778153203 | 21.67° C | 97% | 1011.3 hPa | 0 mm | - | 1 W/m² | - |
| 1778152900 | 21.67° C | 96% | 1011 hPa | 0 mm | - | 1 W/m² | - |
| 1778152597 | 21.67° C | 96% | 1011.5 hPa | 0 mm | - | 0 W/m² | - |
| 1778152293 | 21.67° C | 96% | 1011.4 hPa | 0 mm | - | 0 W/m² | - |
| 1778151990 | 21.67° C | 96% | 1011.4 hPa | 0 mm | - | 1 W/m² | - |
| 1778151687 | 21.67° C | 96% | 1011.4 hPa | 0 mm | - | 1 W/m² | - |
| 1778151384 | 21.67° C | 96% | 1011.7 hPa | 0 mm | - | 0 W/m² | - |
| 1778151079 | 21.67° C | 96% | 1011.6 hPa | 0 mm | - | 0 W/m² | - |
| 1778150777 | 21.67° C | 96% | 1011.4 hPa | 0 mm | - | 0 W/m² | - |
| 1778150473 | 21.67° C | 96% | 1011.6 hPa | 0 mm | - | 0 W/m² | - |
| 1778150169 | 21.67° C | 96% | 1011.4 hPa | 0 mm | - | 0 W/m² | - |
| 1778149866 | 21.67° C | 97% | 1011.5 hPa | 0 mm | - | 0 W/m² | - |
| 1778149563 | 21.67° C | 97% | 1011.4 hPa | 0 mm | - | 0 W/m² | - |
| 1778149259 | 21.67° C | 97% | 1011.2 hPa | 0 mm | - | 0 W/m² | - |
| 1778148954 | 21.67° C | 97% | 1011 hPa | 0 mm | - | 0 W/m² | - |
| 1778148651 | 21.67° C | 97% | 1011 hPa | 0 mm | - | 0 W/m² | - |
| 1778148348 | 21.67° C | 97% | 1010.6 hPa | 0 mm | - | 0 W/m² | - |
| 1778148046 | 21.67° C | 98% | 1010.8 hPa | 0 mm | - | 0 W/m² | - |
| 1778147744 | 21.67° C | 98% | 1010.9 hPa | 0 mm | - | 0 W/m² | - |
| 1778147441 | 21.67° C | 98% | 1010.9 hPa | 0 mm | - | 0 W/m² | - |
| 1778147137 | 21.67° C | 98% | 1010.9 hPa | 0 mm | - | 0 W/m² | - |
* Rain latest hour (hover to see other rain measurements)
** Current wind speed in m/s (hover to see current wind gust speed)